Find Starlink 31581

NORAD ID: 59474 Int'l Des: 2024-068 Owner: SPXS Country: US Constellation: starlink operational
LEOCIRCULAR

当前视图

正在加载3D地球...

About Starlink 31581

Starlink 31581 (NORAD 59474) is a starlink constellation satellite (v2 mini) launched Apr 10, 2024 by SPXS of US. It operates in LEO, CIRCULAR orbit with a mass of 730.00 kg.

关于 Starlink 31581

正在加载描述...

即将过境

Passes for default location (London). Set your location on the main map for personalized predictions.

高度历史

Loading altitude history...

两行轨道根数

1 59474U 24068V 26170.29244266 .00000247 00000-0 18517-4 0 9999
2 59474 43.0011 173.6014 0001210 276.3393 83.7321 15.27574774124144
Epoch: Jun 19, 2026 • Age: 9 hours

当前状态

高度 482.6 km
速度 7.63 km/s
星下点 16.28°N, 167.59°W
发射日期 Apr 10, 2024
运行时间 2.1 years
类型 internet

技术详情

分类 Payload
质量 730.00 kg
干质量 700.00 kg
总质量 730.00 kg
长度 0.30 m
直径 4.10 m
跨度 29.00 m
形状 Box + pan
制造商 SPXS
平台类型 Starlink V2M
阶段状态 In Orbit
所有者/国家 SPXS/US

Most Searched